SWA855 KIND-KPIT

Flight info

Callsign SWA855
Flight time N/A
Altitude 35000
Route MAREO5 BDOCK CTW FEWGA7
Aircraft B738/M-SDE2E3FGHIRWXY/LB1

Departure

Time 2026-05-05 00:01
Airport Indianapolis International Airport (KIND)

Arrival

Time N/A
Airport Pittsburgh International Airport (KPIT)
Time Latitude Longitude Altitude Speed Heading
2026-05-04 23:34 39.71586 -86.29493 790 ft 0 kts 147°
2026-05-04 23:53 39.71604 -86.29508 790 ft 4 kts 145°
2026-05-04 23:53 39.71620 -86.29525 789 ft 2 kts 129°
2026-05-04 23:53 39.71625 -86.29538 789 ft 2 kts 77°
2026-05-04 23:53 39.71621 -86.29551 789 ft 2 kts 48°
2026-05-04 23:54 39.71613 -86.29561 788 ft 2 kts 44°
2026-05-04 23:54 39.71607 -86.29568 788 ft 0 kts 43°
2026-05-04 23:55 39.71608 -86.29568 788 ft 1 kts 43°
2026-05-04 23:56 39.71617 -86.29555 788 ft 3 kts 46°
2026-05-04 23:56 39.71636 -86.29530 789 ft 4 kts 45°
2026-05-04 23:56 39.71658 -86.29501 789 ft 4 kts 45°
2026-05-04 23:56 39.71680 -86.29473 789 ft 5 kts 45°
2026-05-04 23:57 39.71712 -86.29426 789 ft 10 kts 50°
2026-05-04 23:57 39.71763 -86.29338 790 ft 14 kts 71°
2026-05-04 23:57 39.71714 -86.29240 792 ft 13 kts 140°
2026-05-04 23:57 39.71638 -86.29158 794 ft 16 kts 140°
2026-05-04 23:58 39.71582 -86.29058 795 ft 13 kts 86°
2026-05-04 23:58 39.71629 -86.28966 795 ft 12 kts 50°
2026-05-04 23:58 39.71627 -86.28869 795 ft 12 kts 133°
2026-05-04 23:58 39.71582 -86.28782 796 ft 13 kts 90°
2026-05-04 23:59 39.71641 -86.28681 796 ft 16 kts 44°
2026-05-04 23:59 39.71733 -86.28563 796 ft 21 kts 45°
2026-05-04 23:59 39.71846 -86.28419 796 ft 24 kts 44°
2026-05-04 23:59 39.71962 -86.28271 796 ft 23 kts 44°
2026-05-05 00:00 39.72063 -86.28144 796 ft 14 kts 44°
2026-05-05 00:00 39.72067 -86.28085 796 ft 11 kts 127°
2026-05-05 00:00 39.72016 -86.28020 797 ft 7 kts 135°
2026-05-05 00:00 39.71962 -86.27989 798 ft 11 kts 187°
2026-05-05 00:01 39.71879 -86.28086 797 ft 37 kts 224°
2026-05-05 00:01 39.71519 -86.28537 796 ft 104 kts 224°
2026-05-05 00:01 39.70869 -86.29369 856 ft 153 kts 223°
2026-05-05 00:01 39.70103 -86.30411 1468 ft 164 kts 226°
2026-05-05 00:02 39.69342 -86.31476 2442 ft 153 kts 227°
2026-05-05 00:02 39.68605 -86.32493 3152 ft 166 kts 225°
2026-05-05 00:02 39.67712 -86.33625 3360 ft 192 kts 223°
2026-05-05 00:02 39.66717 -86.34885 3626 ft 211 kts 226°
2026-05-05 00:03 39.65644 -86.36319 4017 ft 228 kts 226°
2026-05-05 00:03 39.64530 -86.37818 4840 ft 230 kts 227°
2026-05-05 00:03 39.63437 -86.39356 5711 ft 233 kts 229°
2026-05-05 00:03 39.62314 -86.40898 6527 ft 239 kts 219°
2026-05-05 00:04 39.60781 -86.41797 7327 ft 249 kts 199°
2026-05-05 00:04 39.59012 -86.42021 8075 ft 264 kts 184°
2026-05-05 00:04 39.57176 -86.41476 8927 ft 279 kts 165°
2026-05-05 00:04 39.55497 -86.40061 9671 ft 301 kts 142°
2026-05-05 00:05 39.54307 -86.37757 10332 ft 322 kts 117°
2026-05-05 00:05 39.53827 -86.34783 10542 ft 354 kts 95°
2026-05-05 00:05 39.54006 -86.31504 10791 ft 377 kts 77°
2026-05-05 00:05 39.54865 -86.28248 11359 ft 386 kts 66°
2026-05-05 00:06 39.55976 -86.25081 12179 ft 386 kts 63°
2026-05-05 00:06 39.57140 -86.21945 13021 ft 387 kts 63°
2026-05-05 00:06 39.58296 -86.18772 13725 ft 392 kts 63°
2026-05-05 00:06 39.59431 -86.15544 14380 ft 395 kts 64°
2026-05-05 00:07 39.60543 -86.12267 15081 ft 397 kts 65°
2026-05-05 00:07 39.61634 -86.08966 15748 ft 400 kts 65°
2026-05-05 00:07 39.62721 -86.05623 16418 ft 403 kts 66°